| time (UTC) | temp F | wind direction | speed MPH | gust MPH | rain 1hr in | rain 24hr in | rain mn in | humidity % | barometer mb |
| 20260831094518 | 78 | 175 | 2.0 | 6.0 | 0.00 | 0.00 | 0.00 | 55 | 1013.1 |
| 20260831094013 | 78 | 173 | 2.0 | 3.0 | 0.00 | 0.00 | 0.00 | 55 | 1013.0 |
| 20260831093513 | 79 | 173 | 3.0 | 5.0 | 0.00 | 0.00 | 0.00 | 54 | 1013.0 |
| 20260831093010 | 79 | 180 | 0.0 | 3.0 | 0.00 | 0.00 | 0.00 | 54 | 1013.2 |
| 20260831092505 | 79 | 200 | 1.0 | 4.0 | 0.00 | 0.00 | 0.00 | 54 | 1012.9 |
| 20260831092001 | 79 | 180 | 4.0 | 6.0 | 0.00 | 0.00 | 0.00 | 53 | 1012.5 |
| 20260831091455 | 80 | 200 | 3.0 | 6.0 | 0.00 | 0.00 | 0.00 | 53 | 1012.5 |
| 20260831090950 | 80 | 166 | 3.0 | 7.0 | 0.00 | 0.00 | 0.00 | 53 | 1012.6 |
| 20260831090446 | 80 | 180 | 5.0 | 8.0 | 0.00 | 0.00 | 0.00 | 52 | 1012.3 |
| 20260831085942 | 80 | 195 | 2.0 | 8.0 | 0.00 | 0.00 | 0.00 | 52 | 1012.4 |
| 20260831085437 | 80 | 161 | 5.0 | 8.0 | 0.00 | 0.00 | 0.00 | 52 | 1012.6 |
| 20260831084936 | 80 | 171 | 4.0 | 9.0 | 0.00 | 0.00 | 0.00 | 52 | 1012.3 |
| 20260831084433 | 80 | 160 | 3.0 | 9.0 | 0.00 | 0.00 | 0.00 | 51 | 1012.4 |
| 20260831083930 | 81 | 210 | 0.0 | 8.0 | 0.00 | 0.00 | 0.00 | 51 | 1012.5 |
| 20260831083425 | 81 | 209 | 3.0 | 8.0 | 0.00 | 0.00 | 0.00 | 51 | 1012.6 |
| 20260831082924 | 81 | 152 | 2.0 | 8.0 | 0.00 | 0.00 | 0.00 | 51 | 1012.4 |
| 20260831082423 | 81 | 180 | 2.0 | 8.0 | 0.00 | 0.00 | 0.00 | 50 | 1012.4 |
| 20260831081919 | 81 | 199 | 5.0 | 6.0 | 0.00 | 0.00 | 0.00 | 50 | 1012.6 |
| 20260831081415 | 81 | 187 | 5.0 | 9.0 | 0.00 | 0.00 | 0.00 | 50 | 1012.4 |
| 20260831080910 | 82 | 160 | 6.0 | 9.0 | 0.00 | 0.00 | 0.00 | 49 | 1012.4 |
| 20260831080405 | 82 | 152 | 5.0 | 8.0 | 0.00 | 0.00 | 0.00 | 49 | 1012.3 |
| 20260831075901 | 82 | 180 | 5.0 | 7.0 | 0.00 | 0.00 | 0.00 | 49 | 1012.5 |
| 20260831075356 | 82 | 181 | 5.0 | 9.0 | 0.00 | 0.00 | 0.00 | 49 | 1012.6 |
| 20260831074851 | 82 | 168 | 5.0 | 9.0 | 0.00 | 0.00 | 0.00 | 48 | 1012.5 |
| 20260831074350 | 83 | 181 | 5.0 | 11.0 | 0.00 | 0.00 | 0.00 | 48 | 1012.5 |
| 20260831073845 | 83 | 179 | 7.0 | 8.0 | 0.00 | 0.00 | 0.00 | 47 | 1012.6 |
| 20260831073344 | 83 | 166 | 4.0 | 10.0 | 0.00 | 0.00 | 0.00 | 47 | 1012.7 |
| 20260831072840 | 83 | 187 | 8.0 | 10.0 | 0.00 | 0.00 | 0.00 | 46 | 1012.9 |
| 20260831072335 | 84 | 155 | 4.0 | 9.0 | 0.00 | 0.00 | 0.00 | 46 | 1012.9 |
| 20260831071831 | 84 | 176 | 4.0 | 10.0 | 0.00 | 0.00 | 0.00 | 46 | 1012.9 |
| 20260831071330 | 84 | 186 | 6.0 | 12.0 | 0.00 | 0.00 | 0.00 | 45 | 1012.6 |
| 20260831070826 | 84 | 178 | 9.0 | 14.0 | 0.00 | 0.00 | 0.00 | 45 | 1012.6 |
| 20260831070324 | 84 | 176 | 4.0 | 9.0 | 0.00 | 0.00 | 0.00 | 45 | 1012.7 |
| 20260831065824 | 84 | 175 | 10.0 | 13.0 | 0.00 | 0.00 | 0.00 | 45 | 1012.4 |
| 20260831065322 | 84 | 173 | 6.0 | 12.0 | 0.00 | 0.00 | 0.00 | 44 | 1012.6 |
| 20260831064817 | 84 | 200 | 4.0 | 10.0 | 0.00 | 0.00 | 0.00 | 44 | 1012.7 |
| 20260831064307 | 84 | 181 | 6.0 | 11.0 | 0.00 | 0.00 | 0.00 | 43 | 1012.7 |
| 20260831063803 | 84 | 194 | 6.0 | 10.0 | 0.00 | 0.00 | 0.00 | 43 | 1012.9 |
| 20260831063257 | 84 | 194 | 6.0 | 6.0 | 0.00 | 0.00 | 0.00 | 43 | 1012.9 |
| 20260831062752 | 84 | 156 | 5.0 | 9.0 | 0.00 | 0.00 | 0.00 | 42 | 1012.9 |
| 20260831062247 | 85 | 177 | 7.0 | 11.0 | 0.00 | 0.00 | 0.00 | 42 | 1012.7 |
| 20260831061745 | 85 | 196 | 7.0 | 10.0 | 0.00 | 0.00 | 0.00 | 42 | 1012.9 |
| 20260831061240 | 85 | 180 | 5.0 | 9.0 | 0.00 | 0.00 | 0.00 | 41 | 1012.5 |
| 20260831060736 | 85 | 170 | 4.0 | 12.0 | 0.00 | 0.00 | 0.00 | 41 | 1012.9 |
| 20260831060236 | 85 | 177 | 7.0 | 9.0 | 0.00 | 0.00 | 0.00 | 40 | 1012.7 |
| 20260831055735 | 85 | 186 | 4.0 | 10.0 | 0.00 | 0.00 | 0.00 | 40 | 1012.9 |
| 20260831055230 | 85 | 197 | 4.0 | 10.0 | 0.00 | 0.00 | 0.00 | 40 | 1013.1 |
| 20260831054725 | 85 | 168 | 4.0 | 9.0 | 0.00 | 0.00 | 0.00 | 40 | 1012.9 |
| 20260831054220 | 85 | 168 | 4.0 | 6.0 | 0.00 | 0.00 | 0.00 | 40 | 1013.1 |
| 20260831053713 | 85 | 157 | 3.0 | 8.0 | 0.00 | 0.00 | 0.00 | 39 | 1012.9 |
| 20260831053212 | 85 | 176 | 6.0 | 9.0 | 0.00 | 0.00 | 0.00 | 39 | 1012.7 |
| 20260831052712 | 85 | 166 | 6.0 | 8.0 | 0.00 | 0.00 | 0.00 | 38 | 1012.7 |
| 20260831052212 | 85 | 192 | 4.0 | 9.0 | 0.00 | 0.00 | 0.00 | 38 | 1013.0 |
| 20260831051709 | 86 | 185 | 8.0 | 9.0 | 0.00 | 0.00 | 0.00 | 37 | 1012.7 |
| 20260831051208 | 85 | 188 | 5.0 | 10.0 | 0.00 | 0.00 | 0.00 | 37 | 1012.6 |
| 20260831050703 | 85 | 171 | 3.0 | 8.0 | 0.00 | 0.00 | 0.00 | 36 | 1012.7 |
| 20260831050202 | 84 | 160 | 3.0 | 7.0 | 0.00 | 0.00 | 0.00 | 36 | 1012.5 |
| 20260831045657 | 85 | 190 | 3.0 | 7.0 | 0.00 | 0.00 | 0.00 | 35 | 1012.5 |
| 20260831045151 | 85 | 190 | 3.0 | 6.0 | 0.00 | 0.00 | 0.00 | 35 | 1012.5 |
| 20260831044646 | 85 | 187 | 3.0 | 7.0 | 0.00 | 0.00 | 0.00 | 34 | 1012.5 |
| 20260831044141 | 86 | 149 | 3.0 | 6.0 | 0.00 | 0.00 | 0.00 | 34 | 1012.4 |
| 20260831043637 | 86 | 185 | 3.0 | 6.0 | 0.00 | 0.00 | 0.00 | 34 | 1012.4 |
| 20260831043132 | 86 | 164 | 4.0 | 6.0 | 0.00 | 0.00 | 0.00 | 33 | 1012.4 |
| 20260831042631 | 86 | 169 | 5.0 | 7.0 | 0.00 | 0.00 | 0.00 | 33 | 1012.1 |
| 20260831042126 | 86 | 170 | 3.0 | 5.0 | 0.00 | 0.00 | 0.00 | 33 | 1012.2 |
| 20260831041621 | 86 | 151 | 2.0 | 5.0 | 0.00 | 0.00 | 0.00 | 33 | 1012.1 |
| 20260831041121 | 86 | 166 | 3.0 | 6.0 | 0.00 | 0.00 | 0.00 | 33 | 1011.9 |
| 20260831040616 | 86 | 154 | 2.0 | 5.0 | 0.00 | 0.00 | 0.00 | 33 | 1012.1 |
| 20260831040115 | 86 | 154 | 2.0 | 4.0 | 0.00 | 0.00 | 0.00 | 32 | 1012.1 |
| 20260831035614 | 86 | 150 | 2.0 | 4.0 | 0.00 | 0.00 | 0.00 | 32 | 1012.0 |
| 20260831035109 | 86 | 158 | 2.0 | 4.0 | 0.00 | 0.00 | 0.00 | 32 | 1011.9 |
| 20260831034608 | 86 | 157 | 3.0 | 4.0 | 0.00 | 0.00 | 0.00 | 32 | 1011.5 |
| 20260831034103 | 86 | 155 | 3.0 | 5.0 | 0.00 | 0.00 | 0.00 | 32 | 1011.9 |
| 20260831033559 | 86 | 177 | 3.0 | 5.0 | 0.00 | 0.00 | 0.00 | 32 | 1011.8 |
| 20260831033054 | 86 | 166 | 2.0 | 4.0 | 0.00 | 0.00 | 0.00 | 31 | 1011.6 |
| 20260831032553 | 86 | 180 | 2.0 | 4.0 | 0.00 | 0.00 | 0.00 | 31 | 1011.6 |
| 20260831032049 | 87 | 157 | 1.0 | 3.0 | 0.00 | 0.00 | 0.00 | 30 | 1011.4 |
| 20260831031548 | 87 | 175 | 2.0 | 4.0 | 0.00 | 0.00 | 0.00 | 30 | 1011.3 |
| 20260831031048 | 88 | 192 | 0.0 | 4.0 | 0.00 | 0.00 | 0.00 | 30 | 1011.3 |
| 20260831030547 | 88 | 170 | 2.0 | 5.0 | 0.00 | 0.00 | 0.00 | 29 | 1011.3 |
| 20260831030046 | 89 | 159 | 2.0 | 5.0 | 0.00 | 0.00 | 0.00 | 28 | 1011.1 |
| 20260831025545 | 89 | 177 | 3.0 | 5.0 | 0.00 | 0.00 | 0.00 | 28 | 1011.1 |
| 20260831025040 | 88 | 139 | 2.0 | 5.0 | 0.00 | 0.00 | 0.00 | 29 | 1010.9 |
| 20260831024536 | 87 | 180 | 0.0 | 5.0 | 0.00 | 0.00 | 0.00 | 29 | 1010.8 |
| 20260831024035 | 88 | 169 | 2.0 | 4.0 | 0.00 | 0.00 | 0.00 | 30 | 1010.9 |
| 20260831023533 | 88 | 163 | 3.0 | 5.0 | 0.00 | 0.00 | 0.00 | 29 | 1010.8 |
| 20260831023027 | 89 | 152 | 3.0 | 5.0 | 0.00 | 0.00 | 0.00 | 28 | 1010.7 |
| 20260831022527 | 89 | 194 | 3.0 | 4.0 | 0.00 | 0.00 | 0.00 | 28 | 1010.6 |
| 20260831022022 | 89 | 157 | 2.0 | 2.0 | 0.00 | 0.00 | 0.00 | 28 | 1010.3 |
| 20260831021521 | 89 | 173 | 1.0 | 4.0 | 0.00 | 0.00 | 0.00 | 28 | 1010.3 |
| 20260831021017 | 90 | 180 | 0.0 | 4.0 | 0.00 | 0.00 | 0.00 | 28 | 1010.4 |
| 20260831020512 | 90 | 160 | 1.0 | 4.0 | 0.00 | 0.00 | 0.00 | 28 | 1010.3 |
| 20260831020007 | 91 | 162 | 2.0 | 3.0 | 0.00 | 0.00 | 0.00 | 27 | 1010.1 |
| 20260831015503 | 91 | 175 | 0.0 | 3.0 | 0.00 | 0.00 | 0.00 | 26 | 1010.1 |
| 20260831014958 | 92 | 172 | 3.0 | 3.0 | 0.00 | 0.00 | 0.00 | 26 | 1010.0 |
| 20260831014452 | 92 | 144 | 2.0 | 3.0 | 0.00 | 0.00 | 0.00 | 25 | 1010.2 |
| 20260831013948 | 92 | 120 | 1.0 | 5.0 | 0.00 | 0.00 | 0.00 | 25 | 1010.2 |
| 20260831013444 | 92 | 157 | 2.0 | 5.0 | 0.00 | 0.00 | 0.00 | 25 | 1010.1 |
| 20260831012937 | 93 | 177 | 2.0 | 4.0 | 0.00 | 0.00 | 0.00 | 25 | 1010.0 |
| 20260831012433 | 94 | 176 | 2.0 | 4.0 | 0.00 | 0.00 | 0.00 | 24 | 1010.0 |
| 20260831011933 | 94 | 146 | 2.0 | 4.0 | 0.00 | 0.00 | 0.00 | 24 | 1009.6 |
| 20260831011427 | 95 | 117 | 2.0 | 5.0 | 0.00 | 0.00 | 0.00 | 23 | 1009.9 |
| 20260831010923 | 96 | 90 | 0.0 | 2.0 | 0.00 | 0.00 | 0.00 | 23 | 1009.9 |
| 20260831010418 | 96 | 74 | 1.0 | 2.0 | 0.00 | 0.00 | 0.00 | 22 | 1009.9 |
| 20260831005913 | 97 | 131 | 0.0 | 5.0 | 0.00 | 0.00 | 0.00 | 22 | 1009.8 |
| 20260831005409 | 98 | 152 | 2.0 | 8.0 | 0.00 | 0.00 | 0.00 | 21 | 1009.8 |
| 20260831004903 | 98 | 173 | 9.0 | 9.0 | 0.00 | 0.00 | 0.00 | 21 | 1009.8 |
| 20260831004400 | 99 | 75 | 1.0 | 5.0 | 0.00 | 0.00 | 0.00 | 20 | 1009.7 |
| 20260831003855 | 99 | 96 | 0.0 | 5.0 | 0.00 | 0.00 | 0.00 | 20 | 1009.7 |
| 20260831003351 | 100 | 172 | 0.0 | 4.0 | 0.00 | 0.00 | 0.00 | 20 | 1010.0 |
| 20260831002850 | 99 | 135 | 5.0 | 10.0 | 0.00 | 0.00 | 0.00 | 19 | 1009.9 |
| 20260831002349 | 100 | 90 | 0.0 | 6.0 | 0.00 | 0.00 | 0.00 | 20 | 1009.5 |
| 20260831001845 | 100 | 69 | 0.0 | 11.0 | 0.00 | 0.00 | 0.00 | 20 | 1009.7 |
| 20260831001346 | 100 | 186 | 1.0 | 5.0 | 0.00 | 0.00 | 0.00 | 20 | 1009.6 |
| 20260831000843 | 101 | 120 | 0.0 | 4.0 | 0.00 | 0.00 | 0.00 | 20 | 1009.6 |
| 20260831000340 | 101 | 90 | 0.0 | 5.0 | 0.00 | 0.00 | 0.00 | 20 | 1009.8 |
| 20260830235836 | 101 | 95 | 2.0 | 6.0 | 0.00 | 0.00 | 0.00 | 19 | 1009.7 |
| 20260830235331 | 100 | 154 | 0.0 | 13.0 | 0.00 | 0.00 | 0.00 | 20 | 1009.7 |
| 20260830234827 | 100 | 155 | 3.0 | 8.0 | 0.00 | 0.00 | 0.00 | 20 | 1009.7 |
| 20260830234322 | 101 | 98 | 1.0 | 6.0 | 0.00 | 0.00 | 0.00 | 19 | 1009.7 |
| 20260830233818 | 101 | 140 | 0.0 | 3.0 | 0.00 | 0.00 | 0.00 | 20 | 1009.8 |
| 20260830233313 | 101 | 153 | 4.0 | 9.0 | 0.00 | 0.00 | 0.00 | 20 | 1010.0 |
| 20260830232809 | 101 | 134 | 5.0 | 9.0 | 0.00 | 0.00 | 0.00 | 20 | 1009.9 |
| 20260830232306 | 102 | 162 | 3.0 | 6.0 | 0.00 | 0.00 | 0.00 | 20 | 1009.9 |
| 20260830231800 | 102 | 184 | 4.0 | 4.0 | 0.00 | 0.00 | 0.00 | 20 | 1010.1 |
| 20260830231255 | 102 | 216 | 0.0 | 11.0 | 0.00 | 0.00 | 0.00 | 20 | 1010.0 |
| 20260830230749 | 102 | 127 | 6.0 | 6.0 | 0.00 | 0.00 | 0.00 | 19 | 1010.2 |
| 20260830230245 | 102 | 101 | 3.0 | 6.0 | 0.00 | 0.00 | 0.00 | 19 | 1010.0 |
| 20260830225744 | 101 | 77 | 0.0 | 8.0 | 0.00 | 0.00 | 0.00 | 21 | 1010.2 |
| 20260830225239 | 102 | 165 | 3.0 | 7.0 | 0.00 | 0.00 | 0.00 | 20 | 1009.9 |
| 20260830224738 | 102 | 148 | 6.0 | 7.0 | 0.00 | 0.00 | 0.00 | 20 | 1010.1 |
| 20260830224234 | 102 | 159 | 6.0 | 13.0 | 0.00 | 0.00 | 0.00 | 20 | 1010.0 |
| 20260830223730 | 103 | 102 | 3.0 | 7.0 | 0.00 | 0.00 | 0.00 | 20 | 1009.9 |
| 20260830223226 | 102 | 111 | 4.0 | 11.0 | 0.00 | 0.00 | 0.00 | 21 | 1010.1 |
| 20260830222720 | 103 | 158 | 3.0 | 5.0 | 0.00 | 0.00 | 0.00 | 21 | 1010.2 |
| 20260830222216 | 103 | 104 | 5.0 | 7.0 | 0.00 | 0.00 | 0.00 | 20 | 1010.2 |
| 20260830221711 | 102 | 190 | 3.0 | 4.0 | 0.00 | 0.00 | 0.00 | 21 | 1010.1 |
| 20260830221208 | 102 | 71 | 2.0 | 7.0 | 0.00 | 0.00 | 0.00 | 22 | 1010.2 |
| 20260830220703 | 102 | 262 | 3.0 | 7.0 | 0.00 | 0.00 | 0.00 | 22 | 1010.4 |
| 20260830220202 | 103 | 119 | 9.0 | 11.0 | 0.00 | 0.00 | 0.00 | 21 | 1010.7 |
| 20260830215701 | 103 | 102 | 2.0 | 3.0 | 0.00 | 0.00 | 0.00 | 22 | 1010.1 |
| 20260830215155 | 101 | 154 | 3.0 | 7.0 | 0.00 | 0.00 | 0.00 | 22 | 1010.4 |
| 20260830214651 | 101 | 187 | 1.0 | 9.0 | 0.00 | 0.00 | 0.00 | 23 | 1010.6 |
| 20260830214145 | 102 | 74 | 1.0 | 6.0 | 0.00 | 0.00 | 0.00 | 23 | 1010.7 |
| 20260830213644 | 102 | 153 | 7.0 | 10.0 | 0.00 | 0.00 | 0.00 | 23 | 1010.7 |
| 20260830213140 | 102 | 125 | 3.0 | 7.0 | 0.00 | 0.00 | 0.00 | 23 | 1011.1 |
| 20260830212636 | 102 | 178 | 4.0 | 7.0 | 0.00 | 0.00 | 0.00 | 23 | 1010.9 |
| 20260830212131 | 101 | 180 | 5.0 | 7.0 | 0.00 | 0.00 | 0.00 | 24 | 1010.8 |
| 20260830211626 | 102 | 77 | 0.0 | 9.0 | 0.00 | 0.00 | 0.00 | 23 | 1011.0 |
| 20260830211125 | 101 | 172 | 7.0 | 15.0 | 0.00 | 0.00 | 0.00 | 24 | 1011.2 |
| 20260830210621 | 102 | 177 | 3.0 | 9.0 | 0.00 | 0.00 | 0.00 | 24 | 1011.3 |
| 20260830210120 | 103 | 74 | 1.0 | 13.0 | 0.00 | 0.00 | 0.00 | 23 | 1011.3 |
| 20260830205617 | 101 | 151 | 7.0 | 14.0 | 0.00 | 0.00 | 0.00 | 24 | 1011.0 |
| 20260830205113 | 101 | 126 | 2.0 | 5.0 | 0.00 | 0.00 | 0.00 | 24 | 1011.2 |
| 20260830204612 | 101 | 285 | 1.0 | 5.0 | 0.00 | 0.00 | 0.00 | 24 | 1011.4 |
| 20260830204111 | 101 | 167 | 6.0 | 9.0 | 0.00 | 0.00 | 0.00 | 25 | 1011.6 |
| 20260830203608 | 101 | 145 | 4.0 | 7.0 | 0.00 | 0.00 | 0.00 | 24 | 1011.8 |
| 20260830203107 | 101 | 128 | 3.0 | 6.0 | 0.00 | 0.00 | 0.00 | 25 | 1011.6 |
| 20260830202602 | 100 | 166 | 3.0 | 9.0 | 0.00 | 0.00 | 0.00 | 26 | 1011.8 |
| 20260830202057 | 100 | 182 | 4.0 | 4.0 | 0.00 | 0.00 | 0.00 | 26 | 1011.9 |
| 20260830201557 | 99 | 169 | 2.0 | 5.0 | 0.00 | 0.00 | 0.00 | 26 | 1012.0 |
| 20260830201052 | 99 | 191 | 3.0 | 7.0 | 0.00 | 0.00 | 0.00 | 27 | 1012.2 |
| 20260830200548 | 100 | 165 | 10.0 | 11.0 | 0.00 | 0.00 | 0.00 | 27 | 1012.2 |
| 20260830200046 | 99 | 117 | 5.0 | 12.0 | 0.00 | 0.00 | 0.00 | 27 | 1012.1 |
| 20260830195542 | 100 | 180 | 2.0 | 12.0 | 0.00 | 0.00 | 0.00 | 27 | 1012.2 |
| 20260830195040 | 99 | 163 | 4.0 | 9.0 | 0.00 | 0.00 | 0.00 | 27 | 1012.6 |
| 20260830194539 | 98 | 210 | 2.0 | 4.0 | 0.00 | 0.00 | 0.00 | 27 | 1012.6 |
| 20260830194039 | 98 | 177 | 3.0 | 7.0 | 0.00 | 0.00 | 0.00 | 27 | 1012.6 |
| 20260830193538 | 98 | 164 | 7.0 | 13.0 | 0.00 | 0.00 | 0.00 | 28 | 1012.6 |
| 20260830193034 | 98 | 82 | 3.0 | 7.0 | 0.00 | 0.00 | 0.00 | 28 | 1012.7 |
| 20260830192530 | 97 | 216 | 0.0 | 7.0 | 0.00 | 0.00 | 0.00 | 29 | 1012.6 |
| 20260830192029 | 98 | 181 | 5.0 | 9.0 | 0.00 | 0.00 | 0.00 | 29 | 1012.9 |
| 20260830191525 | 98 | 157 | 4.0 | 11.0 | 0.00 | 0.00 | 0.00 | 29 | 1013.0 |
| 20260830191020 | 97 | 178 | 3.0 | 7.0 | 0.00 | 0.00 | 0.00 | 30 | 1013.0 |
| 20260830190515 | 97 | 192 | 5.0 | 12.0 | 0.00 | 0.00 | 0.00 | 30 | 1013.0 |
| 20260830190010 | 97 | 341 | 0.0 | 7.0 | 0.00 | 0.00 | 0.00 | 30 | 1012.9 |
| 20260830185504 | 96 | 57 | 0.0 | 3.0 | 0.00 | 0.00 | 0.00 | 30 | 1013.3 |
| 20260830185000 | 96 | 166 | 0.0 | 7.0 | 0.00 | 0.00 | 0.00 | 30 | 1013.1 |
| 20260830184459 | 96 | 160 | 4.0 | 7.0 | 0.00 | 0.00 | 0.00 | 30 | 1013.2 |
| 20260830183953 | 97 | 196 | 5.0 | 7.0 | 0.00 | 0.00 | 0.00 | 30 | 1013.3 |
| 20260830183448 | 97 | 240 | 0.0 | 2.0 | 0.00 | 0.00 | 0.00 | 31 | 1013.3 |
| 20260830182943 | 96 | 15 | 1.0 | 6.0 | 0.00 | 0.00 | 0.00 | 31 | 1013.6 |
| 20260830182438 | 96 | 182 | 4.0 | 8.0 | 0.00 | 0.00 | 0.00 | 31 | 1013.4 |
| 20260830181929 | 96 | 243 | 3.0 | 5.0 | 0.00 | 0.00 | 0.00 | 31 | 1013.6 |
| 20260830181424 | 95 | 218 | 3.0 | 8.0 | 0.00 | 0.00 | 0.00 | 32 | 1013.5 |
| 20260830180919 | 96 | 90 | 7.0 | 7.0 | 0.00 | 0.00 | 0.00 | 32 | 1013.7 |
| 20260830180418 | 94 | 139 | 3.0 | 9.0 | 0.00 | 0.00 | 0.00 | 33 | 1013.8 |
| 20260830175917 | 95 | 157 | 3.0 | 5.0 | 0.00 | 0.00 | 0.00 | 32 | 1013.9 |
| 20260830175412 | 95 | 114 | 0.0 | 6.0 | 0.00 | 0.00 | 0.00 | 33 | 1013.8 |
| 20260830174907 | 94 | 157 | 4.0 | 7.0 | 0.00 | 0.00 | 0.00 | 34 | 1013.9 |
| 20260830174402 | 94 | 150 | 3.0 | 5.0 | 0.00 | 0.00 | 0.00 | 34 | 1013.8 |
| 20260830173857 | 93 | 220 | 5.0 | 6.0 | 0.00 | 0.00 | 0.00 | 34 | 1014.3 |
| 20260830173353 | 93 | 105 | 2.0 | 7.0 | 0.00 | 0.00 | 0.00 | 34 | 1014.4 |
| 20260830172849 | 92 | 148 | 2.0 | 8.0 | 0.00 | 0.00 | 0.00 | 35 | 1014.4 |
| 20260830172345 | 93 | 178 | 4.0 | 7.0 | 0.00 | 0.00 | 0.00 | 35 | 1014.4 |
| 20260830171840 | 93 | 109 | 4.0 | 6.0 | 0.00 | 0.00 | 0.00 | 35 | 1014.4 |
| 20260830171336 | 91 | 135 | 2.0 | 6.0 | 0.00 | 0.00 | 0.00 | 37 | 1014.4 |
| 20260830170831 | 91 | 107 | 2.0 | 11.0 | 0.00 | 0.00 | 0.00 | 37 | 1014.7 |
| 20260830170330 | 93 | 180 | 7.0 | 8.0 | 0.00 | 0.00 | 0.00 | 37 | 1014.5 |
| 20260830165828 | 92 | 203 | 3.0 | 6.0 | 0.00 | 0.00 | 0.00 | 37 | 1014.6 |
| 20260830165325 | 91 | 169 | 2.0 | 5.0 | 0.00 | 0.00 | 0.00 | 37 | 1014.7 |
| 20260830164821 | 90 | 166 | 6.0 | 8.0 | 0.00 | 0.00 | 0.00 | 40 | 1014.7 |
| 20260830164316 | 89 | 200 | 0.0 | 9.0 | 0.00 | 0.00 | 0.00 | 41 | 1015.0 |
| 20260830163814 | 88 | 166 | 7.0 | 8.0 | 0.00 | 0.00 | 0.00 | 42 | 1014.9 |
| 20260830163308 | 89 | 164 | 2.0 | 6.0 | 0.00 | 0.00 | 0.00 | 41 | 1014.7 |
| 20260830162803 | 89 | 154 | 4.0 | 7.0 | 0.00 | 0.00 | 0.00 | 42 | 1014.9 |
| 20260830162300 | 88 | 214 | 2.0 | 8.0 | 0.00 | 0.00 | 0.00 | 43 | 1015.0 |
| 20260830161755 | 87 | 166 | 3.0 | 8.0 | 0.00 | 0.00 | 0.00 | 44 | 1014.9 |
| 20260830161254 | 87 | 166 | 0.0 | 5.0 | 0.00 | 0.00 | 0.00 | 44 | 1015.0 |
| 20260830160749 | 86 | 200 | 4.0 | 11.0 | 0.00 | 0.00 | 0.00 | 45 | 1014.9 |
| 20260830160249 | 86 | 161 | 3.0 | 11.0 | 0.00 | 0.00 | 0.00 | 46 | 1014.8 |
| 20260830155745 | 86 | 151 | 3.0 | 11.0 | 0.00 | 0.00 | 0.00 | 46 | 1015.0 |
| 20260830155241 | 85 | 174 | 3.0 | 10.0 | 0.00 | 0.00 | 0.00 | 46 | 1015.1 |
| 20260830154736 | 86 | 195 | 4.0 | 6.0 | 0.00 | 0.00 | 0.00 | 46 | 1014.9 |
| 20260830154232 | 84 | 185 | 6.0 | 9.0 | 0.00 | 0.00 | 0.00 | 47 | 1015.0 |
| 20260830153728 | 84 | 162 | 4.0 | 11.0 | 0.00 | 0.00 | 0.00 | 49 | 1015.1 |
| 20260830153223 | 84 | 119 | 0.0 | 6.0 | 0.00 | 0.00 | 0.00 | 48 | 1015.1 |
| 20260830152721 | 84 | 187 | 5.0 | 9.0 | 0.00 | 0.00 | 0.00 | 49 | 1015.3 |
| 20260830152216 | 83 | 170 | 5.0 | 8.0 | 0.00 | 0.00 | 0.00 | 49 | 1015.5 |
| 20260830151711 | 83 | 178 | 4.0 | 7.0 | 0.00 | 0.00 | 0.00 | 50 | 1015.3 |
| 20260830151210 | 83 | 169 | 7.0 | 9.0 | 0.00 | 0.00 | 0.00 | 50 | 1015.1 |
| 20260830150705 | 82 | 142 | 3.0 | 9.0 | 0.00 | 0.00 | 0.00 | 51 | 1015.5 |
| 20260830150205 | 82 | 157 | 5.0 | 6.0 | 0.00 | 0.00 | 0.00 | 51 | 1015.0 |
| 20260830145700 | 82 | 166 | 3.0 | 8.0 | 0.00 | 0.00 | 0.00 | 51 | 1015.1 |
| 20260830145155 | 81 | 188 | 4.0 | 7.0 | 0.00 | 0.00 | 0.00 | 52 | 1015.4 |
| 20260830144650 | 81 | 197 | 3.0 | 7.0 | 0.00 | 0.00 | 0.00 | 52 | 1015.5 |
| 20260830144146 | 81 | 180 | 5.0 | 9.0 | 0.00 | 0.00 | 0.00 | 52 | 1015.3 |
| 20260830143642 | 81 | 143 | 3.0 | 8.0 | 0.00 | 0.00 | 0.00 | 53 | 1015.5 |
| 20260830143140 | 80 | 186 | 0.0 | 9.0 | 0.00 | 0.00 | 0.00 | 53 | 1015.3 |
| 20260830142636 | 80 | 188 | 5.0 | 9.0 | 0.00 | 0.00 | 0.00 | 54 | 1015.3 |
| 20260830142136 | 80 | 177 | 3.0 | 7.0 | 0.00 | 0.00 | 0.00 | 54 | 1015.4 |
| 20260830141631 | 80 | 180 | 2.0 | 4.0 | 0.00 | 0.00 | 0.00 | 54 | 1015.3 |
| 20260830141126 | 80 | 183 | 3.0 | 5.0 | 0.00 | 0.00 | 0.00 | 55 | 1015.1 |
| 20260830140621 | 79 | 194 | 3.0 | 6.0 | 0.00 | 0.00 | 0.00 | 55 | 1015.4 |
| 20260830140116 | 79 | 186 | 3.0 | 6.0 | 0.00 | 0.00 | 0.00 | 55 | 1015.4 |
| 20260830135615 | 79 | 162 | 4.0 | 4.0 | 0.00 | 0.00 | 0.00 | 55 | 1015.5 |
| 20260830135111 | 79 | 168 | 2.0 | 4.0 | 0.00 | 0.00 | 0.00 | 55 | 1015.6 |
| 20260830134607 | 79 | 198 | 1.0 | 4.0 | 0.00 | 0.00 | 0.00 | 55 | 1015.4 |
| 20260830134102 | 78 | 151 | 0.0 | 3.0 | 0.00 | 0.00 | 0.00 | 56 | 1015.6 |
| 20260830133557 | 78 | 121 | 3.0 | 3.0 | 0.00 | 0.00 | 0.00 | 56 | 1015.4 |
| 20260830133052 | 78 | 75 | 0.0 | 1.0 | 0.00 | 0.00 | 0.00 | 56 | 1015.3 |
| 20260830132548 | 78 | 90 | 0.0 | 0.0 | 0.00 | 0.00 | 0.00 | 56 | 1015.4 |
| 20260830132043 | 77 | 90 | 0.0 | 0.0 | 0.00 | 0.00 | 0.00 | 58 | 1015.0 |
| 20260830131542 | 77 | 90 | 0.0 | 0.0 | 0.00 | 0.00 | 0.00 | 59 | 1015.0 |
| 20260830131037 | 74 | 90 | 0.0 | 1.0 | 0.00 | 0.00 | 0.00 | 63 | 1015.0 |
| 20260830130532 | 72 | 23 | 1.0 | 2.0 | 0.00 | 0.00 | 0.00 | 65 | 1014.9 |
| 20260830130027 | 71 | 7 | 0.0 | 2.0 | 0.00 | 0.00 | 0.00 | 64 | 1015.0 |
| 20260830125521 | 71 | 82 | 0.0 | 2.0 | 0.00 | 0.00 | 0.00 | 65 | 1015.0 |
| 20260830125015 | 71 | 6 | 0.0 | 2.0 | 0.00 | 0.00 | 0.00 | 64 | 1014.7 |
| 20260830124509 | 73 | 114 | 0.0 | 2.0 | 0.00 | 0.00 | 0.00 | 63 | 1015.0 |
| 20260830124005 | 73 | 264 | 0.0 | 0.0 | 0.00 | 0.00 | 0.00 | 64 | 1014.8 |
| 20260830123502 | 73 | 264 | 0.0 | 0.0 | 0.00 | 0.00 | 0.00 | 64 | 1014.7 |
| 20260830123001 | 73 | 264 | 0.0 | 0.0 | 0.00 | 0.00 | 0.00 | 63 | 1014.6 |
| 20260830122459 | 73 | 243 | 0.0 | 2.0 | 0.00 | 0.00 | 0.00 | 64 | 1014.3 |
| 20260830121954 | 73 | 195 | 1.0 | 1.0 | 0.00 | 0.00 | 0.00 | 64 | 1014.6 |
| 20260830121450 | 73 | 229 | 0.0 | 0.0 | 0.00 | 0.00 | 0.00 | 63 | 1014.5 |
| 20260830120949 | 74 | 229 | 0.0 | 0.0 | 0.00 | 0.00 | 0.00 | 63 | 1014.5 |
| 20260830120444 | 74 | 194 | 0.0 | 2.0 | 0.00 | 0.00 | 0.00 | 62 | 1014.5 |
| 20260830115941 | 74 | 176 | 2.0 | 4.0 | 0.00 | 0.00 | 0.00 | 62 | 1014.1 |
| 20260830115437 | 74 | 188 | 0.0 | 4.0 | 0.00 | 0.00 | 0.00 | 62 | 1013.9 |
| 20260830114932 | 75 | 147 | 2.0 | 2.0 | 0.00 | 0.00 | 0.00 | 61 | 1014.1 |
| 20260830114429 | 75 | 175 | 1.0 | 3.0 | 0.00 | 0.00 | 0.00 | 61 | 1014.1 |
| 20260830113928 | 75 | 171 | 3.0 | 4.0 | 0.00 | 0.00 | 0.00 | 60 | 1013.9 |
| 20260830113424 | 75 | 172 | 0.0 | 3.0 | 0.00 | 0.00 | 0.00 | 60 | 1014.1 |
| 20260830112919 | 75 | 161 | 2.0 | 3.0 | 0.00 | 0.00 | 0.00 | 60 | 1014.3 |
| 20260830112415 | 76 | 166 | 3.0 | 4.0 | 0.00 | 0.00 | 0.00 | 60 | 1013.7 |
| 20260830111911 | 75 | 120 | 1.0 | 4.0 | 0.00 | 0.00 | 0.00 | 59 | 1013.9 |
| 20260830111406 | 76 | 162 | 4.0 | 5.0 | 0.00 | 0.00 | 0.00 | 59 | 1013.9 |
| 20260830110901 | 76 | 180 | 2.0 | 6.0 | 0.00 | 0.00 | 0.00 | 59 | 1014.1 |
| 20260830110357 | 76 | 185 | 2.0 | 5.0 | 0.00 | 0.00 | 0.00 | 59 | 1013.8 |
| 20260830105856 | 76 | 185 | 3.0 | 5.0 | 0.00 | 0.00 | 0.00 | 58 | 1013.9 |
| 20260830105353 | 76 | 150 | 3.0 | 5.0 | 0.00 | 0.00 | 0.00 | 58 | 1013.8 |
| 20260830104849 | 76 | 186 | 4.0 | 4.0 | 0.00 | 0.00 | 0.00 | 57 | 1013.7 |
| 20260830104346 | 76 | 159 | 3.0 | 4.0 | 0.00 | 0.00 | 0.00 | 57 | 1013.9 |
| 20260830103844 | 76 | 166 | 3.0 | 3.0 | 0.00 | 0.00 | 0.00 | 57 | 1013.7 |
| 20260830103341 | 76 | 165 | 1.0 | 4.0 | 0.00 | 0.00 | 0.00 | 57 | 1013.9 |
| 20260830102838 | 76 | 158 | 4.0 | 6.0 | 0.00 | 0.00 | 0.00 | 57 | 1013.7 |
| 20260830102334 | 76 | 158 | 2.0 | 5.0 | 0.00 | 0.00 | 0.00 | 57 | 1013.9 |
| 20260830101830 | 76 | 166 | 3.0 | 4.0 | 0.00 | 0.00 | 0.00 | 57 | 1014.2 |
| 20260830101325 | 76 | 180 | 3.0 | 4.0 | 0.00 | 0.00 | 0.00 | 57 | 1014.2 |
| 20260830100825 | 76 | 187 | 1.0 | 5.0 | 0.00 | 0.00 | 0.00 | 57 | 1013.9 |
| 20260830100319 | 76 | 172 | 0.0 | 5.0 | 0.00 | 0.00 | 0.00 | 56 | 1014.1 |
| 20260830095818 | 76 | 141 | 3.0 | 4.0 | 0.00 | 0.00 | 0.00 | 56 | 1013.8 |
| 20260830095314 | 76 | 172 | 4.0 | 5.0 | 0.00 | 0.00 | 0.00 | 56 | 1013.9 |